Location: ???????
(55.4231°N, 38.5570°E)
Time: 14:10:14
(UTC+00:00)

SL-16 R/B - Pass Details

Date: 05 August 2024
Orbit: 842 x 845 km, 71.0° (Epoch: 18 September)

Event Time Altitude Azimuth Distance (km) Brightness Sun altitude
Exits shadow 00:26:55 - 244° (WSW) 2,573 4.1 -8.8°
Reaches altitude 10° 00:27:13 10° 245° (WSW) 2,464 4.1 -8.8°
Maximum altitude 00:32:36 43° 317° (NW) 1,173 3.0 -8.3°
Drops below altitude 10° 00:38:01 10° 29° (NNE) 2,477 6.1 -7.7°
Sets 00:40:36 0° 36° (NE) 3,416 7.6 -7.5°
